Farnborough, United Kingdom

11:01 AM BST on October 01, 2016 (GMT +0100)
Farnborough

Weather History for EGLF - March, 2013

Change the Weather History Date:

Sunday, March 3, 2013

  Actual Average (EGLL) Record (EGLL)
Temperature  
Mean Temperature 34 °F -  
Max Temperature 43 °F 47 °F 59 °F (1998)
Min Temperature 24 °F 35 °F 26 °F (2006)
Degree Days  
Heating Degree Days 32    
Moisture  
Dew Point 32 °F    
Average Humidity 79    
Maximum Humidity 100    
Minimum Humidity 60    
Precipitation  
Precipitation 0.00 in - - ()
Sea Level Pressure  
Sea Level Pressure 30.20 in    
Wind  
Wind Speed 6 mph ()    
Max Wind Speed 14 mph    
Max Gust Speed -    
Visibility 5.6 miles    
Events      
Averages and records for this station are not official NWS values.
T = Trace of Precipitation, MM = Missing Value Source: Averaged Metar Reports

Daily Weather History Graph

Daily Weather History Graph

Search for Another Location

Airport or City:

Trip Planner

Search our weather history database for the weather conditions in past years. The results will help you decide how hot, cold, wet, or windy it might be!

Date:

Astronomy

Mar. 03, 2013 Rise Set
Actual Time 6:43 AM GMT 5:47 PM GMT
Civil Twilight 6:10 AM GMT 6:20 PM GMT
Nautical Twilight 5:31 AM GMT 6:59 PM GMT
Astronomical Twilight 4:53 AM GMT 7:37 PM GMT
Moon No Moon Rise 9:02 AM GMT (3/3)
Length of Visible Light 12h 10m
Length of Day
11h 03m
Waning Gibbous, 66% of the Moon is Illuminated
Mar 3
Waning Gibbous
Mar 4
Last Quarter
Mar 11
New
Mar 19
First Quarter
Mar 27
Full

Hourly Weather History & Observations

Time (GMT) Temp. Windchill Dew Point Humidity Pressure Visibility Wind Dir Wind Speed Gust Speed Precip Events Conditions
2:50 AM 24 °F - 22 °F 90% 30.29 in 2 mi WSW 1.2 mph - -  
5:50 AM 26 °F - 25 °F 95% 30.27 in 4 mi Calm Calm - -   Overcast
7:50 AM 28.4 °F - 28.4 °F 100% 30.24 in 5.0 mi Calm Calm - N/A   Overcast
8:20 AM 30.2 °F - 30.2 °F 100% 30.24 in 3.7 mi North 2.3 mph - N/A   Overcast
8:50 AM 33 °F - 31 °F 92% 30.26 in 4 mi Calm Calm - -   Overcast
8:50 AM 32.0 °F - 32.0 °F 100% 30.24 in 4.3 mi Calm Calm - N/A   Overcast
9:20 AM 33.8 °F 29.6 °F 32.0 °F 93% 30.24 in 4.3 mi NE 4.6 mph - N/A   Overcast
9:50 AM 35.6 °F 31.7 °F 32.0 °F 87% 30.24 in 5.0 mi East 4.6 mph - N/A   Overcast
10:20 AM 37.4 °F 34.9 °F 32.0 °F 81% 30.24 in 6.2 mi Variable 3.5 mph - N/A   Overcast
10:50 AM 39.2 °F 33.0 °F 32.0 °F 75% 30.24 in 6.2 mi East 9.2 mph - N/A   Overcast
11:20 AM 39.2 °F 34.2 °F 32.0 °F 75% 30.24 in 6.2 mi East 6.9 mph - N/A   Overcast
11:50 AM 40 °F - 33 °F 69% 30.25 in 9 mi East 9.2 mph - -   Overcast
11:50 AM 39.2 °F 32.5 °F 33.8 °F 81% 30.24 in 6.2 mi East 10.4 mph - N/A   Overcast
12:20 PM 41.0 °F 35.2 °F 33.8 °F 76% 30.21 in 6.2 mi ENE 9.2 mph - N/A   Overcast
12:50 PM 42.8 °F 38.0 °F 33.8 °F 70% 30.21 in 6.2 mi ESE 8.1 mph - N/A   Overcast
1:20 PM 42.8 °F 37.5 °F 33.8 °F 70% 30.18 in 6.2 mi ESE 9.2 mph - N/A   Overcast
1:50 PM 42.8 °F 35.8 °F 35.6 °F 76% 30.18 in 6.2 mi East 13.8 mph - N/A   Overcast
2:20 PM 42.8 °F 36.6 °F 35.6 °F 76% 30.18 in 6.2 mi East 11.5 mph - N/A   Mostly Cloudy
2:50 PM 43 °F - 34 °F 61% 30.19 in 37 mi ESE 13.8 mph - -   Overcast
2:50 PM 42.8 °F 35.8 °F 33.8 °F 70% 30.18 in 6.2 mi East 13.8 mph - N/A   Mostly Cloudy
3:20 PM 42.8 °F 36.2 °F 33.8 °F 70% 30.18 in 6.2 mi East 12.7 mph - N/A   Mostly Cloudy
3:50 PM 42.8 °F 36.6 °F 35.6 °F 76% 30.15 in 6.2 mi East 11.5 mph - N/A   Mostly Cloudy
4:20 PM 42.8 °F 36.2 °F 33.8 °F 70% 30.15 in 6.2 mi East 12.7 mph - N/A   Mostly Cloudy
4:50 PM 42.8 °F 36.6 °F 33.8 °F 70% 30.39 in 6.2 mi East 11.5 mph - N/A   Mostly Cloudy
5:20 PM 42.8 °F 37.0 °F 33.8 °F 70% 30.12 in 6.2 mi East 10.4 mph - N/A   Scattered Clouds
5:50 PM 42 °F - 33 °F 60% 30.14 in 28 mi East 9.2 mph - -   Mostly Cloudy
5:50 PM 41.0 °F 35.2 °F 32.0 °F 70% 30.12 in 6.2 mi East 9.2 mph - N/A   Scattered Clouds
6:20 PM 39.2 °F 32.5 °F 32.0 °F 75% 30.12 in 6.2 mi East 10.4 mph - N/A   Scattered Clouds
6:50 PM 41.0 °F 33.9 °F 33.8 °F 76% 30.12 in 6.2 mi East 12.7 mph - N/A   Scattered Clouds
7:20 PM 39.2 °F 32.0 °F 33.8 °F 81% 30.12 in 6.2 mi East 11.5 mph - N/A   Scattered Clouds
7:50 PM 37.4 °F 31.4 °F 32.0 °F 81% 30.12 in 6.2 mi East 8.1 mph - N/A   Scattered Clouds
8:50 PM 36 °F - 34 °F 87% 30.15 in 4 mi East 9.2 mph - -   Scattered Clouds
11:50 PM 36 °F - 34 °F 87% 30.11 in 4 mi East 8.1 mph - -   Overcast